Regional Weather Roundup
Issued by NWS Upton, NY

Current Version | Previous Version | Text Only | Print | Product List | Glossary On
Versions: 1 2 3 4 5 6 7 8 9 10 11 12 13 14 15 16 17 18 19 20 21 22 23 24 25 26 27 28 29 30 31 32 33 34 35 36 37 38 39 40 41 42 43 44 45 46 47 48 49 50
000 ASUS41 KOKX 201508 RWROKX Regional Weather Roundup National Weather Service New York NY 1000 AM EST SAT JAN 20 2018 Note: "FAIR" indicates few or no clouds below 12,000 feet with no significant weather and/or obstructions to visibility. NYZ071-072-176-178-NJZ106-104-201600- New York City Metro Area CITY SKY/WX TMP DP RH WIND PRES REMARKS Central Park FAIR 43 23 45 MISG 29.92R Bronx Bot Gard N/A 45 23 42 W12 29.91S Bronx Lehman C N/A 45 25 45 SW6 N/A LaGuardia Arpt PTSUNNY 46 23 40 SW16G22 29.90R Queens College N/A 45 25 45 W17 N/A Kennedy Intl PTSUNNY 43 27 53 SW9 29.93R Breezy Point N/A 41 N/A N/A W10G17 N/A Brooklyn Coll N/A 46 25 42 W12 N/A Staten Island N/A 45 25 45 W12 N/A Newark/Liberty PTSUNNY 45 23 42 SW12 29.91R Teterboro FAIR 45 24 43 W17G23 29.89R $$ NYZ177-179-078>081-201600- Long Island New York CITY SKY/WX TMP DP RH WIND PRES REMARKS Jones Beach N/A 41 N/A N/A W10G16 N/A Wantagh N/A 45 27 49 SW15 N/A Matinecock Pt N/A 41 N/A N/A SW24 N/A Farmingdale FAIR 46 24 42 W20G28 29.90R MacArthur/ISP PTSUNNY 48 25 40 W22G29 29.88R Shirley FAIR 47 26 44 W17G26 29.89R Mt Sinai Harb N/A N/A N/A N/A W9G18 N/A Westhampton FAIR 47 24 40 W23G32 29.88R East Hampton FAIR 45 26 47 W15G29 29.85R Southold N/A 45 27 49 W10G23 N/A Montauk N/A 47 26 44 W17G30 29.82S $$ NYZ052-065-067-201600- Hudson Valley CITY SKY/WX TMP DP RH WIND PRES REMARKS White Plains FAIR 44 24 45 VRB7G18 29.86R Larchmont Harb N/A 41 N/A N/A SW18G25 N/A Croton On Huds N/A 39 N/A N/A S6 N/A WCI 35 Somers N/A 39 25 56 W3 N/A Brewster N/A 36 25 64 S3 N/A Newburgh PTSUNNY 39 27 60 W14 29.85R WCI 31 Montgomery FAIR 37 25 61 SW10 29.83S WCI 30 Otisville N/A 39 25 56 SW3 N/A Warwick N/A 39 27 60 W10 N/A WCI 32 Suffern N/A 43 27 52 SW5 N/A Poughkeepsie FAIR 40 23 50 SW10 29.84F WCI 33 Albany PTSUNNY 34 21 59 S5 29.81R WCI 30 $$ NJZ001-105-106-008-010-013-015-019>022-104-201600- New Jersey CITY SKY/WX TMP DP RH WIND PRES REMARKS Newark/Liberty PTSUNNY 45 23 42 SW12 29.91R Teterboro FAIR 45 24 43 W17G23 29.89R Caldwell FAIR 45 24 43 W10 29.90R Somerville FAIR 46 27 47 VRB6 29.91R Linden FAIR 44 24 44 W10 29.92R Perth Amboy N/A 43 N/A N/A W17 N/A Sussex FAIR 38 25 59 SW7 29.86R WCI 33 Andover N/A 39 25 57 SW7 29.89R WCI 34 Trenton FAIR 48 25 40 W14G21 29.93R Millville FAIR 42 21 43 W10 30.01S Atlantic City FAIR 45 19 35 W8 29.99F Wrightstown FAIR 47 24 40 W16 29.93R Toms River FAIR 48 22 35 SW17G25 29.96S Belmar FAIR 49 24 37 SW17G26 29.93S $$ PAZ047>061-062-071-201600- Eastern Pennsylvania CITY SKY/WX TMP DP RH WIND PRES REMARKS Philadelphia PTSUNNY 44 23 43 SW16 29.98R Allentown FAIR 42 25 50 SW14 29.92R Scranton FAIR 38 25 59 SW10 29.89R WCI 31 $$ CTZ002-004>006-009-010-012-RIZ004-006-007-MAZ004-011-015-201600- Southern New England In CT CITY SKY/WX TMP DP RH WIND PRES REMARKS Bradley Intl PTSUNNY 39 24 55 S10 29.77F WCI 32 Hartford PTSUNNY 42 24 49 SW7 29.80S Danbury FAIR 40 24 53 W13 29.84S WCI 32 Wtrbury/Oxford FAIR 39 23 52 W7G20 29.81R WCI 34 Norwalk Harbor N/A 37 N/A N/A SW21 N/A WCI 27 Bridgeport FAIR 40 28 62 SW17 29.85R WCI 31 Meriden FAIR 42 23 46 SW12G20 29.82R New Haven FAIR 40 27 59 SW14G26 29.84S WCI 32 Chester FAIR 45 23 42 VRB7G23 29.82R Groton FAIR 43 26 51 W16G25 29.81R Willimantic FAIR 43 23 45 W10G22 29.79R In RI CITY SKY/WX TMP DP RH WIND PRES REMARKS Providence PTSUNNY 44 25 47 W14G23 29.78R Block Island FAIR 43 31 62 SW22G29 29.82S Westerly FAIR 42 29 59 W14G25 29.82R In MA CITY SKY/WX TMP DP RH WIND PRES REMARKS Boston PTSUNNY 41 23 48 SW17G26 29.69S Worcester FAIR 38 19 46 W24G36 29.66S WCI 27 Westfield FAIR 33 24 69 S3 29.76R Provincetown FAIR 42 30 62 SW20 29.72S Nantucket FAIR 43 36 76 SW21 29.80S $$ ANZ330-335-338-340-345-350-353-355-201600- Coastal Marine Observations STATION/POSITION TIME SKY/WX TEMP WIND PRES VSBY WAVE AIR SEA DIR/SP/G HT/PER (UTC) (F) (DEG/KT/KT) (MB) (MI) (FT/S) NY Harb Entrance 1350 42 40 230/ 14/ 16 1012.2 3/ 5 20 S Fire Island 1350 43 42 240/ 19/ 23 1012.5 5/ 5 15 E Barnegat Li 1430 43 N/A 4/ 5 Hudson Canyon 1350 48 48 240/ 19/ 23 1013.9 5/ 6 Kings Point 1436 42 32 280/ 13/ 18 1013.4 Execution Rocks NOT AVBL Western LI Sound NOT AVBL Central LI Sound 1430 39 250/ 16/ 17 N/A 2 Robbins Reef 1436 43 260/ 15/ 17 1013.1 $$ >>>>>>>>>>>>>>>>>>>>>>>>>>>> KEY <<<<<<<<<<<<<<<<<<<<<<<<<<< > < > SKY/WX - Sky Condition/Present Weather < > TMP - Temperature in Fahrenheit < > DP - Dew Point in Fahrenheit < > RH - Relative Humidity in Percent < > WIND - Direction (from) and Speed in MPH < > PRES - Mean Sea Level Pressure (inches of Hg) < > WCI - Wind Chill Index < > VSB - Visibility in Miles < > HX - Heat Index < > TC - Temperature in Celsius < > VRB - Varibale Wind Direction < > < >>>>>>>>>>>>>>>>>>>>>>>>>>>> KEY <<<<<<<<<<<<<<<<<<<<<<<<<<<

USA.gov is the U.S. government's official web portal to all federal, state and local government web resources and services.